This is the latest recevied weather packets stored in our database for station/object N6SPP. If no packets are shown the sender has not sent any weather packets the latest 10 day(s).
| Time | Temp. | Humidity | Pressure | Rain* | Wind** | Luminosity | Snow |
|---|---|---|---|---|---|---|---|
| 1777751946 | 18.33° C | 68% | 1014.8 hPa | 0 mm | - | 564 W/m² | - |
| 1777751642 | 18.33° C | 68% | 1014.8 hPa | 0 mm | - | 636 W/m² | - |
| 1777751339 | 17.78° C | 68% | 1015 hPa | 0 mm | - | 670 W/m² | - |
| 1777751035 | 17.78° C | 68% | 1014.7 hPa | 0 mm | - | 571 W/m² | - |
| 1777750731 | 17.78° C | 69% | 1015 hPa | 0 mm | - | 680 W/m² | - |
| 1777750429 | 17.78° C | 68% | 1014.9 hPa | 0 mm | - | 682 W/m² | - |
| 1777750124 | 17.22° C | 70% | 1015 hPa | 0 mm | - | 718 W/m² | - |
| 1777749822 | 17.22° C | 70% | 1015.1 hPa | 0 mm | - | 636 W/m² | - |
| 1777749518 | 17.22° C | 71% | 1015 hPa | 0 mm | - | 576 W/m² | - |
| 1777749217 | 17.22° C | 71% | 1015 hPa | 0 mm | - | 511 W/m² | - |
| 1777748913 | 17.22° C | 70% | 1015.1 hPa | 0 mm | - | 491 W/m² | - |
| 1777748611 | 18.33° C | 68% | 1015.1 hPa | 0 mm | - | 526 W/m² | - |
| 1777748306 | 17.78° C | 70% | 1015.2 hPa | 0 mm | - | 647 W/m² | - |
| 1777748002 | 17.22° C | 71% | 1015.2 hPa | 0 mm | - | 758 W/m² | - |
| 1777747700 | 17.22° C | 71% | 1015.3 hPa | 0 mm | - | 688 W/m² | - |
| 1777747395 | 17.22° C | 71% | 1015.2 hPa | 0 mm | - | 439 W/m² | - |
| 1777747092 | 16.67° C | 72% | 1015.3 hPa | 0 mm | - | 341 W/m² | - |
| 1777746788 | 16.67° C | 72% | 1015.2 hPa | 0 mm | - | 278 W/m² | - |
| 1777746483 | 16.67° C | 72% | 1015.2 hPa | 0 mm | - | 268 W/m² | - |
| 1777746179 | 17.22° C | 71% | 1015.1 hPa | 0 mm | - | 285 W/m² | - |
| 1777745876 | 17.22° C | 70% | 1015.2 hPa | 0 mm | - | 507 W/m² | - |
| 1777745575 | 17.22° C | 70% | 1015 hPa | 0 mm | - | 362 W/m² | - |
| 1777745272 | 17.78° C | 69% | 1015 hPa | 0 mm | - | 317 W/m² | - |
| 1777744969 | 17.78° C | 69% | 1015 hPa | 0 mm | - | 335 W/m² | - |
| 1777744663 | 17.78° C | 69% | 1014.9 hPa | 0 mm | - | 420 W/m² | - |
* Rain latest hour (hover to see other rain measurements)
** Current wind speed in m/s (hover to see current wind gust speed)